Flag for U.S.A. Weather past 2 weeks in Santa Fe, New Mexico, U.S.A.

63 °F


Feels Like: 63 °F
Forecast: 47 / 62 °F
Wind: 8 mph from Northeast

Location: Santa Fe County Municipal Airport

Current Time: Oct 6, 2015 at 6:52:02 PM

Latest Report: Oct 6, 2015 at 5:53 PM

Visibility: 10 mi

Pressure: 30.01 "Hg (23.35 "Hg at 2132m altitude)

Humidity: 54%

Dew point: 46 °F

Location of Santa FeLocation

Historic Weather in Santa Fe — Graph


Santa Fe temperature yesterday

Maximum temperature yesterday: 68 °F (at 3:53 PM)
Minimum temperature yesterday: 52 °F (at 11:53 PM)
Average temperature yesterday: 58 °F

Past Weeks' High & Low Weather Summary

High88 °F (Sep 27, 3:53 PM)100% (Sep 23, 5:53 AM)30.32 "Hg (Sep 23, 5:53 AM)
Low44 °F (Sep 25, 5:53 AM)11% (Sep 27, 3:53 PM)29.61 "Hg (Oct 3, 3:53 PM)
Average64 °F55%29.93 "Hg
* Reported Sep 21 5:53 PM — Oct 6 5:53 PM, Santa Fe, Weather by CustomWeather, © 2015

Note: Actual official high and low records may vary slightly from our data, if they occured in-between our weather recording intervals... More about our weather records


Santa Fe weather history for previous 24 hours

Time TempWeatherWind HumidityBarometerVisibility
5:53 PM
Tue, Oct 6
63 °FSunny.8 mph54%30.01 "Hg10 mi
5:00 PM65 °FSunny.9 mph49%30.21 "Hg10 mi
4:03 PM68 °FThundershowers. Partly sunny.5 mph36%30.20 "Hg10 mi
3:53 PM68 °FMild.8 mph36%29.97 "Hg10 mi
2:53 PM69 °FPassing clouds.6 mph33%30.01 "Hg10 mi
1:53 PM69 °FSunny.7 mph35%30.03 "Hg10 mi
12:53 PM69 °FScattered clouds.3 mph38%30.06 "Hg10 mi
11:53 AM65 °FScattered clouds.7 mph49%30.10 "Hg10 mi
10:53 AM62 °FSunny.5 mph65%30.11 "Hg10 mi
9:53 AM54 °FSunny.12 mph90%30.14 "Hg10 mi
9:01 AM51 °FFog.10 mph96%30.32 "Hg3 mi
7:53 AM49 °FFog.7 mph97%30.11 "Hg1 mi
6:53 AM48 °FFog.9 mph100%30.10 "Hg0 mi
5:53 AM48 °FClear.7 mph96%30.06 "Hg10 mi
4:53 AM50 °FPartly cloudy.3 mph96%30.05 "Hg10 mi
3:53 AM51 °FMostly cloudy.5 mph92%30.04 "Hg10 mi
2:53 AM49 °FPassing clouds.3 mph97%30.06 "Hg10 mi
1:53 AM51 °FPassing clouds.6 mph92%30.06 "Hg10 mi
12:53 AM50 °FPassing clouds.3 mph96%30.06 "Hg10 mi
11:53 PM
Mon, Oct 5
52 °FPassing clouds.5 mph93%30.06 "Hg10 mi
10:53 PM53 °FPartly cloudy.3 mph89%30.08 "Hg10 mi
9:53 PM53 °FLight rain. Overcast.10 mph89%30.08 "Hg10 mi
8:53 PM58 °FPartly cloudy.9 mph70%30.02 "Hg10 mi
7:53 PM60 °FClear.8 mph62%29.98 "Hg10 mi
6:53 PM62 °FSunny.9 mph58%29.96 "Hg10 mi
Weather by CustomWeather, © 2015

See weather overviewHow to use our weather pages